Location: Fontevrault
(47.1823°N, 0.0493°E)
Time: 18:05:40
(UTC+00:00)

Cosmos 1725 Rocket - Pass Details

Date: 31 October 2021
Orbit: 961 x 991 km, 82.9° (Epoch: 27 November)

Event Time Altitude Azimuth Distance (km) Brightness Sun altitude
Rises 18:45:01 0° 172° (S) 3,654 6.9 -20.9°
Reaches altitude 10° 18:47:34 10° 168° (SSE) 2,707 6.2 -21.3°
Maximum altitude 18:53:35 56° 92° (E) 1,141 4.0 -22.4°
Drops below altitude 10° 18:59:36 10° 16° (NNE) 2,711 6.2 -23.4°
Sets 19:02:09 0° 13° (NNE) 3,660 6.9 -23.8°
